www.pogodaiklimat.ru

Погода и климат >> Архив погоды >> Россия >> Ненецкий АО >> Имени Федорова


ПОГОДА в Имени Федорова

  • Прогноз погоды в Имени Федорова
  • Монитор погоды в Имени Федорова
  • Климат города

АРХИВ ПОГОДЫ в Имени Федорова

Время (UTC), дата Ветер
(напр.,м/с)
 
Видим.   Явления Облачность Т
(С)
Тd
(С)
f
(%)
Тe
(С)
Тes
(С)
Комфортность P
(гПа)
Po
(гПа)
Тmin
(С)
Tmax
(С)
R
(мм)
R24
(мм)
S
(см)
21 12.08 Ю 4 10 км 8/5 300 м
[Sc Ac trans]
+2.0 +0.9 92 -3 -3 1013.1 1011.8
00 13.08 Ю 5 10 км 8/0
[Ac trans]
+3.3 +1.1 85 -2 -2 1012.9 1011.5
03 13.08 н/о +4.3
06 13.08 Ю 9-11
{11}
10 км 10/0
[Ac und]
+5.6 +2.9 83 -0 -0 1010.8 1009.5
09 13.08 н/о +6.6
12 13.08 Ю 7
{12}
10 км 10/0
[Ac und]
+7.0 +5.3 89 +2 +2 1009.4 1008.1
15 13.08 Ю 6
{10}
10 км 10/10 540 м
[Sc]
+7.0 +6.1 94 +2 +2 1008.0 1006.7 +7.4
18 13.08 Ю 6 10 км 10/10 1230 м
[Sc]
+7.0 +6.5 97 +2 +2 1006.5 1005.2
21 13.08 н/о +7.2
00 14.08 Ю 5 4000 м слабый дождь 10/3 600 м
[Sc As op]
+6.9 +6.9 100 +3 +3 1002.3 1001.0
03 14.08 н/о +11.4
06 14.08 З 9-11
{11}
4000 м дымка {дождь, туман} 10/10 270 м
[St]
+12.3 +12.3 100 +9 +9 999.4 998.1
09 14.08 н/о +13.1
12 14.08 З 12-16
{16}
1000 м дымка 10/10 240 м
[St]
+13.5 +13.4 99 +10 +10 1000.1 998.9
15 14.08 З 9-12
{16}
500 м туман ?/? +11.0 +11.0 100 +7 +7 1001.0 999.7 +14.2
18 14.08 З 11-14
{15}
1000 м дымка {туман} 10/10 210 м
[St]
+9.2 +9.2 100 +4 +4 1001.6 1000.3
21 14.08 н/о +8.3
00 15.08 З 9-12
{15}
4000 м дымка 10/10 600 м
[Sc]
+7.5 +7.5 100 +2 +2 1004.3 1003.0
03 15.08 н/о +6.3
06 15.08 З 10-13
{13}
10 км 4/4 600 м
[Sc]
+8.5 +7.1 91 +3 +3 1007.4 1006.1
09 15.08 З 11-14
{15}
10 км ясно +11.1 +7.9 81 +7 +7 1008.5 1007.2
12 15.08 З 10-13
{16}
10 км ясно +11.3 +7.7 78 +7 +7 1009.6 1008.3
15 15.08 н/о +11.3
18 15.08 З 7
{12}
4000 м дымка 10/10 270 м
[St]
+8.9 +8.9 100 +5 +5 1008.5 1007.3
21 15.08 н/о +8.5
00 16.08 З 11-15
{15}
10 км 10/10 500 м
[Sc]
+7.1 +6.1 93 +1 +1 1009.3 1008.0
03 16.08 З 10-12
{15}
10 км 8/8 600 м
[Sc]
+7.4 +6.0 91 +2 +2 1011.0 1009.7 +6.7
06 16.08 З 11-15
{15}
10 км 8/0
[Ac trans]
+9.3 +6.2 81 +4 +4 1011.7 1010.5
09 16.08 н/о +9.4
12 16.08 З 12-15
{16}
10 км 4/4 600 м
[Sc]
+9.3 +7.0 86 +4 +4 1012.4 1011.1
15 16.08 н/о +8.6
18 16.08 З 11-14
{15}
10 км 10/0
[Ac und]
+7.9 +7.1 95 +2 +2 1012.9 1011.6
21 16.08 З 10-13
{15}
10 км 10/10 840 м
[Sc]
+7.5 +6.5 93 +2 +2 1013.3 1012.0
00 17.08 З 12-15
{15}
10 км 10/10 1110 м
[Sc]
+7.5 +6.3 92 +1 +1 1014.1 1012.8
03 17.08 н/о +7.4
06 17.08 З 13-16
{17}
10 км 8/5 600 м
[Sc Ac trans]
+8.1 +6.5 90 +2 +2 1016.1 1014.8
09 17.08 н/о +9.1
12 17.08 З 12-15
{17}
10 км 3/0
[Ac trans Ci fib]
+10.1 +6.7 79 +5 +5 1017.3 1016.0
15 17.08 З 9-12
{15}
10 км 8/0
[Ac trans Ci fib]
+10.6 +6.6 76 +7 +7 1016.7 1015.4 +10.9
18 17.08 ЮЗ 8-10
{12}
10 км 9/0
[Ac trans Ci fib]
+9.8 +8.5 92 +6 +6 1014.8 1013.5
21 17.08 н/о +11.3
00 18.08 З 11-13
{13}
10 км 9/0
[Ac trans]
+11.9 +10.3 90 +8 +8 1008.9 1007.6
03 18.08 н/о +11.5
06 18.08 З 11-14
{16}
1000 м дымка {ливн. осадки} 10/10 210 м
[St]
+10.0 +9.9 99 +5 +5 1005.6 1004.3
09 18.08 З 12-14
{16}
1000 м дымка 10/10 210 м
[St]
+8.9 +8.9 100 +3 +3 1005.9 1004.6
12 18.08 З 11-14
{15}
4000 м дымка 10/10 240 м
[St]
+8.6 +8.6 100 +3 +3 1006.3 1005.0
15 18.08 н/о +5.9
18 18.08 С 5-11
{12}
10 км 9/0
[Ac trans]
+5.1 +4.7 97 0 0 1011.0 1009.7
21 18.08 н/о +4.4
00 19.08 СЗ 10-13
{14}
10 км 4/3 600 м
[Sc Ci fib]
+4.4 +2.8 89 -2 -2 1014.3 1013.0
03 19.08 н/о +5.3
06 19.08 СЗ 9-12
{12}
20 км 3/3 300 м
[Sc]
+6.5 +3.2 79 +1 +1 1016.5 1015.2
09 19.08 н/о +7.3
12 19.08 СЗ 8
{10}
20 км 9/0
[Ac trans]
+7.5 +4.1 79 +3 +3 1017.2 1015.9
15 19.08 З 9-11
{11}
20 км 9/0
[Ac trans]
+7.3 +3.7 78 +2 +2 1016.7 1015.4 +8.0

 

Местоположение метеостанции Имени Федорова (Ненецкий АО, Россия): широта 70.45 долгота 59.08 высота над уровнем моря 12 м.

В архиве по умолчанию представлена погода в Имени Федорова за последнюю неделю. Архивные данные за месяц целиком и за предыдущие месяцы, начиная с января 2011 года, Вы можете получить, выбрав интересующий диапазон дат из раскрывающегося списка и нажав кнопку "Ввод!".

Внимание! Время в таблицах - всемирное. Для получения местного времени необходимо прибавить поправку, которая в Имени Федорова равна 3 ч.

Смотрите также архив погоды в соседних городах и на ближайших метеорологических станциях:

Погода на Мысе Белый Нос (Ненецкий АО, Россия) (104 км)
Погода в Амдерме (Ненецкий АО, Россия) (124 км)
Погода в Варандее (Ненецкий АО, Россия) (186 км)
Погода на Мысе Константиновском (Ненецкий АО, Россия) (253 км)
Погода в Усть-Каре (Ненецкий АО, Россия) (261 км)
Погода в Марресаля (Ямало-Ненецкий АО, Россия) (304 км)
Погода в Inari Angeli (Финляндия) (309 км)
Погода в Малых Кармакулах (Архангельская область, Россия) (310 км)
Погода в Хорей-Вере (Ненецкий АО, Россия) (339 км)
Погода в Сенгейском Шаре (Ненецкий АО, Россия) (376 км)

Пояснения к столбцам:

Ветер - указаны скорость ветра в м/с - средняя за 10 мин, порывы в срок и между сроками (в фигурных скобках) и направление, откуда дует ветер: С - северный, СВ - северо-восточный, В - восточный, ЮВ - юго-восточный, Ю - южный, ЮЗ - юго-западный, З - западный, СЗ - северо-западный.
Видимость - горизонтальная дальность видимости в метрах или километрах. При видимости от 1 до 10 км при отсутствии осадков обычно наблюдается дымка, при ухудшении видимости до 1 км и менее - туман. В сухую погоду видимость может ухудшаться дымом, пылью или мглою.
Явления - указаны атмосферные явления, наблюдавшиеся в срок или в последний час перед сроком; фигурными скобками обозначены явления, наблюдавшиеся между сроками (за 1-3 часа до срока); квадратными скобками обозначены град или гололедные отложения с указанием их диаметра в мм.
Облачность - указаны через наклонную черту общая и нижняя облачность в баллах и высота нижней границы облаков в метрах; квадратными скобками обозначены формы облаков: Ci - перистые, Cs - перисто-слоистые, Cc - перисто-кучевые, Ac - высококучевые, As - высокослоистые, Sc - слоисто-кучевые, Ns - слоисто-дождевые, Cu - кучевые, Cb - кучево-дождевые. Подробнее классификацию облаков см. в Атласе облаков (PDF).
T - Температура воздуха - температура, измеренная на высоте 2 м над землей.
Td - Температура точки росы - температура, при понижении до которой содержащийся в воздухе водяной пар достигнет насыщения.
f - Относительная влажность воздуха - влажноcть воздуха, измеренная на высоте 2 м над землей.
Te - Эффективная температура - температура, которую ощущает одетый по сезону человек в тени. Характеристика душности погоды. При расчете учитывается влияние влажности воздуха и скорости ветра на теплоощущения человека.
Tes - Эффективная температура на солнце - температура, которую ощущает человек, с поправкой на солнечный нагрев. Характеристика знойности погоды. Зависит от высоты солнца над горизонтом, облачности и скорости ветра. Ночью, в пасмурную погоду, а также при ветре 12 м/с и более поправка равна нулю.
P - Атмосферное давление - приведенное к уровню моря атмосферное давление.
Po - Атмосферное давление - измеренное на уровне метеостанции атмосферное давление.
Tmin - Минимальная температура - минимум температуры воздуха на высоте 2 м над землей.
Tmax - Максимальная температура - максимум температуры воздуха на высоте 2 м над землей.
R - Количество осадков - Количество выпавших осадков за период времени, мм. При наведении курсора мыши на число - период времени, за который выпало указанное количество осадков.
R24 - Количество осадков - Количество выпавших осадков за 24 часа, мм.
S - Снежный покров - Высота снежного покрова, см. При наведении курсора мыши на число - состояние снежного покрова и степень покрытия местности в баллах.